Regional Weather Roundup
Issued by NWS

Home | Current Version | Previous Version | Graphics & Text | Print | Product List | Glossary On
Versions: 1 2 3 4 5 6 7 8 9 10 11 12 13 14 15 16 17 18 19 20 21 22 23 24 25 26 27 28 29 30 31 32 33 34 35 36 37 38 39 40 41 42 43 44 45 46 47 48 49 50
000
ASUS43 KLMK 240810
RWRKY
KENTUCKY REGIONAL WEATHER ROUNDUP
NATIONAL WEATHER SERVICE LOUISVILLE KY
400 AM EDT MON JUL 24 2017

NOTE "FAIR" INDICATES FEW OR NO CLOUDS BELOW 12,000 FEET
WITH NO SIGNIFICANT WEATHER AND/OR OBSTRUCTIONS TO VISIBILITY.

KYZ001>023-026-027-061>063-070>075-240900-
WESTERN AND SOUTH CENTRAL KENTUCKY

CITY           SKY/WX    TMP DP  RH WIND       PRES   REMARKS
PADUCAH        PTCLDY    74  70  87 CALM      29.88S
HENDERSON      PTCLDY    71  69  93 SW3       29.87F
OWENSBORO      CLEAR     71  70  96 SE3       29.88F
HOPKINSVILLE   CLOUDY    76  73  92 SW3       29.88F
BOWLING GREEN  CLEAR     74  71  91 CALM      29.90R
GLASGOW        PTCLDY    70  70 100 CALM      29.91S
$$

KYZ024-025-028>034-038-045-046-053-240900-
NORTH CENTRAL KENTUCKY

CITY           SKY/WX    TMP DP  RH WIND       PRES   REMARKS
LOUISVILLE/SDF PTCLDY    76  72  87 SW3       29.87S
LOUISVILLE/LOU CLEAR     74  73  97 CALM      29.88S
FORT KNOX      CLEAR     69  69 100 CALM      29.89R
$$

KYZ035>037-039>044-047>052-055>060-089>105-240900-
NORTHEAST KENTUCKY

CITY           SKY/WX    TMP DP  RH WIND       PRES   REMARKS
LEXINGTON      CLEAR     73  69  87 SW6       29.90S
COVINGTON      PTCLDY    71  71 100 SW5       29.86S
FRANKFORT      CLEAR     72  68  87 CALM      29.87F
$$

KYZ054-064>069-076>088-106>120-240900-
SOUTHEAST KENTUCKY

CITY           SKY/WX    TMP DP  RH WIND       PRES   REMARKS
JACKSON        FOG       70  69  97 CALM      29.91S VSB 3/4
LONDON         PTCLDY    70  67  90 S3        29.93S
SOMERSET       PTCLDY    68  68 100 CALM      29.94R
MIDDLESBORO    CLOUDY    69  69 100 CALM      29.95R
MONTICELLO     MOSUNNY   68  67  96 W10       29.95R
$$





USA.gov is the U.S. government's official web portal to all federal, state and local government web resources and services.